THOR ABLESTAR DEB, 1435

Orbit data source: Space-Track

THOR ABLESTAR DEB, 1435 is space debris in LEO originally from a launch on Thu, 24 Jun 1965 UTC launched from the Air Force Western Test Range (AFWTR). Debris objects in space refer to the collection of defunct objects orbiting the Earth. Examples of debris include non-operational satellites, rocket bodies, and fragments generated from explosions, collisions, or faulty payload assembly.

Loading next visibility...
Identifier
1435, 1965-048D
Orbit
LEO
Country
Flag of USUS
Related business
Manufacturer
Unknown
Mission
Spacecraft
Bus & Motor
Unknown
Mass
Unknown
Launch date (UTC)
1965-06-24 (60 years ago)
Launch vehicle
Unknown
Launch site
Air Force Western Test Range (AFWTR)
Object type
Payload
Rocket body
Debris
Shape & HBR
Unknown
Radar Cross Section
Small (<0.1 m²)

Expand to show TLE details & history
Last TLE update: 1 day ago

TLE from 1 day ago
0 THOR ABLESTAR DEB
1 01435U 65048D   25257.04143553  .00000533  00000-0  55912-3 0  9998
2 01435  89.8842 293.4612 0060489  67.0800 309.9092 13.72903965989079
Epoch: 2025-09-14T00:59Z
TLE epoch observation values (Epoch: 2025-09-14T00:59:40.029Z)
Latitude
16.4366°
Longitude
-74.68774°
Altitude
963.072 km
Speed
7.386 km/s
True Right ascension
19h 33m 58s
True Declination
16° 20' 46"
Sunlit
Object was in daylight at epoch
Visualization orbit readout
Latitude
Unknown
Longitude
Unknown
Altitude
Unknown
Speed
Unknown
Apparent Right ascension
Unknown
Apparent Declination
Unknown
Sunlit
N/A
Visualization observer readout
Local Sidereal Time
21:58:28
Azimuth
Unknown
Elevation
Unknown
Doppler factor
Unknown
Orbital elements
Apogee altitude
1,030.726 km
Perigee altitude
941.634 km
Semi-major axis
7,364.317 km
Eccentricity
0.00605
Inclination
89.8842°
RAAN
293.4612°
Arg. of periapsis
67.08°
True anomaly
309.37493°
Mean anomaly
309.9092°
Eccentric anomaly
309.64232°
Mean motion
3.43435 °/min
Orbital period
104.82 mins
BSTAR
0.00055912
Loading maneuver chart data...
Computing Atmospheric mass density...

Documentation

Showing up to 5 results
|